Vorticity
8 8 7 6 6 6 5 6 5 5 5 5 5 6 7 8 9 9 8 9 9 8 6 6 6 6 6 6 6 6 7 7 8 8 8 7 7 6 7 7 5 6 10 16 19 14 10 5 2 1 0 0 -1 -1 2 3 4 4 1 0 3 1 2 15 17 13 17 13 7 6 3 2 3 6 4 2 6 5 7 5 2 10 9 6 11 11 6 5
9 8 8 8 7 6 6 5 6 5 5 5 5 5 6 7 8 9 9 9 9 9 8 7 6 6 5 6 6 5 6 6 7 8 8 7 7 7 7 7 7 6 5 8 15 17 16 11 7 4 2 1 0 -1 0 2 2 3 1 1 6 3 6 13 10 14 18 12 7 4 4 3 2 3 3 4 5 5 9 6 4 9 6 6 12 9 5 6
12 11 9 8 8 7 7 6 6 5 5 5 4 5 5 6 6 7 8 9 9 8 9 9 8 7 5 5 6 5 5 5 6 8 9 7 7 8 7 7 7 7 5 4 6 13 18 18 15 10 7 5 2 2 1 1 0 2 -1 -0 11 8 8 12 9 14 13 7 7 5 5 5 4 3 3 5 6 7 8 8 8 6 5 8 11 8 6 6
13 13 12 10 9 8 8 8 7 6 6 5 5 4 4 5 6 7 7 8 9 9 8 8 9 9 7 6 5 5 5 4 6 7 7 6 7 8 8 7 7 8 7 5 3 6 11 16 19 16 15 12 8 6 3 4 0 1 1 -2 7 7 8 12 11 12 7 4 4 6 5 2 6 3 4 7 5 8 8 8 9 8 7 6 8 8 8 9
10 11 13 12 11 9 8 8 8 8 7 6 6 5 4 4 5 6 7 7 8 8 9 8 8 9 9 8 6 6 5 5 9 7 4 7 8 7 9 8 7 8 7 7 4 4 5 6 12 14 18 16 12 9 4 5 1 -1 2 2 1 0 5 10 14 12 5 4 -0 7 8 -2 6 4 3 10 4 8 10 6 6 8 9 8 10 8 7 9
10 9 11 11 12 12 10 9 8 8 8 8 7 6 5 5 4 5 6 7 8 8 9 8 8 8 8 10 8 7 5 5 10 10 6 7 8 6 9 9 8 8 7 7 6 5 3 3 7 9 15 16 12 12 9 7 4 -1 -1 1 -1 -1 3 5 14 15 5 3 -2 9 10 -5 4 4 4 10 5 8 8 5 5 9 11 8 9 8 7 8
14 13 11 11 12 12 12 11 10 9 8 8 8 7 7 6 5 5 5 6 8 8 9 8 9 8 7 9 9 9 7 3 3 8 8 5 5 7 7 8 8 7 7 7 6 7 4 2 4 6 12 14 11 11 11 10 9 6 1 1 3 5 8 4 13 20 8 2 -0 7 6 -2 5 6 8 8 2 8 9 7 7 7 9 6 8 7 7 7
12 13 13 12 12 12 12 12 11 11 9 9 7 7 7 7 6 5 5 5 6 8 9 9 8 9 8 7 8 9 9 8 3 3 8 6 3 6 6 7 8 7 8 8 7 7 6 3 2 6 11 8 8 10 11 12 9 7 3 5 9 10 11 7 8 15 11 0 -0 9 9 6 7 2 6 5 1 9 9 9 7 6 9 6 7 8 6 6
11 11 11 12 11 11 12 12 13 12 11 11 9 8 7 7 7 6 5 5 6 7 8 10 9 8 8 7 8 7 9 12 8 2 4 6 6 6 5 5 6 7 8 8 8 7 6 5 2 5 6 1 5 11 10 10 10 9 4 4 10 7 7 8 2 10 19 8 5 11 9 10 9 2 2 2 6 9 7 9 6 6 10 6 6 9 7 5
12 13 12 12 12 12 12 12 13 13 13 13 11 11 9 7 7 6 6 4 5 6 8 9 9 9 8 8 7 8 9 9 9 7 4 5 7 6 5 5 5 6 7 7 8 8 8 6 1 1 3 1 6 13 10 5 8 13 8 1 8 8 3 7 3 8 21 16 9 6 10 13 4 2 2 2 8 8 7 10 4 4 8 6 5 8 8 6
12 13 12 13 13 13 13 12 13 13 14 14 13 13 11 10 8 7 7 5 4 5 8 8 9 10 9 8 7 8 11 9 9 11 9 7 7 7 6 5 5 5 6 8 8 7 8 6 2 2 4 6 8 12 11 5 4 12 9 -2 4 8 1 5 2 0 11 15 10 2 7 9 -1 6 6 -1 6 7 6 9 4 4 7 6 5 7 9 7
11 11 11 12 12 13 13 13 13 13 12 13 14 13 13 13 11 10 9 7 6 4 7 9 8 9 9 8 8 7 8 9 9 9 10 9 8 8 7 6 5 5 5 6 8 8 8 5 5 5 2 5 8 8 10 7 5 11 9 -2 3 6 1 5 -3 -5 10 15 13 8 9 8 4 14 7 -4 6 8 6 8 7 3 4 7 5 7 8 6
11 11 11 11 12 13 13 14 13 13 13 12 13 13 13 13 12 12 11 10 8 5 6 8 9 10 9 8 8 7 6 7 8 8 8 9 10 8 7 7 4 6 6 5 6 8 8 6 7 6 3 6 6 8 14 10 4 9 10 1 4 5 3 8 -4 -6 14 18 15 18 20 13 4 7 2 -4 6 9 7 10 10 4 3 7 5 6 7 7
11 11 10 10 11 12 12 14 14 14 14 13 13 13 13 13 12 11 12 12 10 8 7 7 9 11 9 7 6 7 8 7 5 7 8 7 10 10 9 8 5 6 5 5 6 7 8 8 9 5 5 10 8 14 19 10 3 9 13 4 3 5 2 9 3 -4 7 9 6 15 21 11 3 7 7 2 4 7 9 9 9 5 3 5 5 7 6 7
11 11 10 10 10 11 12 12 13 14 14 14 15 14 15 14 12 10 10 11 11 10 8 7 10 11 11 10 7 7 8 7 5 6 7 7 8 10 11 8 6 6 5 6 5 6 9 9 10 7 4 3 8 20 17 8 5 7 13 9 5 5 -3 2 9 5 3 1 2 9 15 15 13 12 8 3 1 5 9 8 8 7 6 3 4 8 6 7
12 11 10 10 9 10 11 10 12 14 13 14 14 14 15 15 15 13 10 9 10 10 10 9 9 9 11 11 9 9 8 6 6 5 5 7 7 7 10 9 9 7 6 6 4 5 7 8 9 9 6 -1 4 18 14 7 7 5 9 10 5 2 -1 3 9 11 6 -3 2 8 10 20 19 5 3 5 1 4 8 6 7 9 8 2 4 9 7 7
11 10 10 10 9 9 9 10 11 12 12 13 13 15 14 14 16 15 13 10 9 9 9 10 9 10 13 11 8 11 10 7 7 6 5 6 7 7 9 10 11 10 9 6 5 5 3 6 7 7 10 0 -2 11 11 7 8 7 7 7 7 2 -1 4 4 12 15 1 -1 3 6 19 21 9 8 8 2 6 9 6 6 8 8 3 3 9 8 5
10 9 9 9 10 9 9 9 9 11 12 12 13 15 13 14 15 14 16 13 10 10 10 10 9 10 12 8 6 9 8 8 7 5 5 5 5 7 8 10 10 9 11 8 6 6 4 6 5 6 10 2 -4 4 10 7 5 14 12 2 7 7 2 2 -1 4 16 13 2 1 8 11 15 19 14 6 4 7 6 5 5 5 9 6 3 7 7 5
10 9 9 9 9 9 9 9 10 11 12 13 14 15 14 14 13 13 14 14 13 11 10 12 11 10 10 9 12 11 6 8 10 7 6 6 4 5 6 8 10 9 10 9 8 6 5 6 4 4 7 6 -1 -4 8 8 -5 10 24 9 1 8 10 6 2 5 12 15 5 3 10 6 8 18 15 10 7 8 8 7 6 5 10 9 4 5 7 6
10 9 10 10 9 8 9 9 11 11 13 14 15 15 16 14 13 13 12 12 14 11 11 12 14 15 12 10 12 13 8 8 10 7 6 6 5 6 7 6 8 10 10 9 9 8 6 5 6 6 6 11 5 -6 3 5 -10 1 24 23 1 -1 14 8 1 7 10 12 6 4 8 11 22 22 17 14 4 9 13 4 4 4 8 11 6 3 6 7
9 10 10 10 9 9 9 10 11 13 14 14 16 17 17 15 15 14 12 13 13 11 11 10 10 12 10 6 6 8 7 8 11 10 7 7 6 4 6 8 7 7 10 11 9 8 8 5 4 7 8 12 9 -0 0 2 -2 -5 8 26 11 -4 12 17 10 3 3 9 8 9 6 6 22 21 20 18 -1 3 5 -4 4 5 4 10 9 4 4 7
8 9 10 9 10 9 10 11 13 15 16 16 18 18 18 17 16 14 13 13 13 11 12 13 12 11 10 8 9 11 12 11 10 10 9 7 7 7 5 7 8 7 8 11 10 8 8 6 4 6 9 12 8 2 2 4 1 -11 -4 21 16 2 5 9 13 7 6 13 6 12 13 2 9 12 20 24 4 1 3 -1 6 5 4 8 9 8 4 5
8 9 9 9 8 9 12 13 15 16 18 19 19 20 20 18 17 16 14 13 14 12 12 15 14 14 14 10 12 17 18 17 11 10 13 9 6 6 6 5 6 8 6 7 10 10 8 7 6 6 8 12 8 2 3 -1 -5 -8 2 16 10 7 12 11 17 13 11 15 4 9 16 7 8 9 16 25 15 6 6 9 10 7 8 5 6 10 5 4
8 9 9 8 9 11 13 15 17 18 18 19 20 20 19 18 19 17 16 17 16 13 12 13 13 16 17 11 12 14 14 16 15 11 11 12 9 4 4 6 5 7 7 7 8 9 10 9 8 7 8 11 6 5 7 -0 -5 -5 -2 12 13 2 6 19 22 10 7 5 -1 5 12 10 9 8 14 26 22 7 2 8 7 8 8 1 5 11 7 5
9 9 8 9 11 13 15 16 17 17 18 19 20 21 20 20 18 17 19 19 20 20 15 14 15 18 17 13 15 15 10 9 13 15 12 10 11 8 5 5 5 7 6 6 8 9 10 10 9 4 5 14 8 3 13 9 -2 -5 -8 1 16 6 -7 11 21 9 7 3 -5 1 8 14 15 13 13 18 18 6 4 8 0 3 9 3 6 10 9 8
8 8 9 10 12 15 17 16 16 17 20 20 20 21 20 20 18 20 18 17 25 24 15 17 17 14 15 17 20 17 13 13 10 9 13 13 9 8 8 4 5 8 5 6 8 9 9 8 10 6 5 10 2 -4 12 15 -4 -4 3 -9 4 18 -4 2 24 16 13 12 4 1 -0 3 9 17 16 10 10 -0 4 19 8 1 4 -0 6 10 10 11
8 8 10 11 15 16 14 15 16 18 21 20 19 17 17 18 18 21 20 24 31 22 18 27 20 12 15 20 22 15 15 23 19 10 8 13 12 8 7 6 6 5 7 7 4 6 11 9 7 5 8 10 6 2 6 18 2 -11 10 3 -3 11 -6 -5 16 9 13 21 11 2 -0 -0 -2 10 20 16 15 0 -1 23 18 1 2 2 3 1 3 12
8 9 11 13 16 14 13 14 14 19 23 21 20 16 16 18 18 22 19 16 20 16 15 20 21 19 14 17 22 15 13 12 16 22 15 10 13 10 9 9 6 4 8 9 5 6 7 10 12 10 14 11 9 7 1 23 18 -22 -2 22 6 0 -8 -5 5 -0 9 19 14 9 6 7 -1 1 14 16 21 12 -3 9 13 6 13 17 11 2 6 17
9 10 12 16 16 12 12 12 11 18 22 21 20 16 17 19 18 25 16 0 6 16 9 3 19 29 15 22 24 4 7 17 21 26 16 12 14 7 9 11 6 2 5 7 6 9 8 9 8 5 17 22 17 7 -6 21 27 -19 -9 17 9 17 5 -14 -1 9 9 8 12 16 10 8 4 1 6 10 20 22 7 1 3 3 7 12 16 14 9 10
10 11 14 17 13 9 9 9 9 14 19 21 21 17 17 18 18 19 14 12 17 20 20 14 16 20 15 29 29 -3 -7 18 39 30 9 13 17 7 7 9 9 2 5 20 9 -1 14 27 16 -5 -0 24 36 22 -7 7 19 -6 2 4 -8 23 20 -10 2 9 5 10 6 4 8 12 11 2 -3 4 15 22 24 13 1 1 1 4 12 10 7 6
11 12 17 17 12 9 7 8 9 10 17 18 18 20 19 17 19 13 5 17 17 4 22 29 15 20 25 21 26 15 -12 -8 25 26 9 10 13 18 13 6 16 -4 -10 32 22 -17 -11 17 32 10 -19 -7 22 33 16 12 10 -13 -4 7 -9 6 15 4 13 6 -1 16 5 -5 9 14 14 7 -10 -1 17 23 32 23 5 3 1 3 7 1 5 9
11 14 19 15 11 8 6 11 8 7 16 16 16 21 19 15 16 11 4 13 13 3 20 30 18 28 30 11 20 27 1 3 25 17 15 16 6 18 15 7 31 8 -20 18 30 7 -10 -7 28 27 -3 -8 -7 10 24 16 16 -5 -19 5 11 4 7 4 11 12 8 12 4 -0 11 10 12 16 -1 -3 12 23 36 28 9 7 6 7 8 3 7 8
11 17 18 12 11 9 9 12 7 8 15 17 18 14 15 20 14 10 12 11 12 13 20 25 22 30 28 14 22 19 -4 16 40 17 16 25 9 14 9 -3 22 24 7 11 14 23 5 -12 24 27 11 18 -17 -20 27 31 27 8 -28 -6 20 4 4 9 6 10 11 8 8 5 9 7 3 8 7 -1 -7 4 27 27 8 4 10 11 6 4 9 8
14 18 14 10 11 12 12 9 6 9 13 20 26 18 14 17 11 11 8 4 16 17 7 11 18 27 24 10 17 18 -6 9 40 26 19 30 18 16 12 -7 -4 6 13 14 7 21 6 -12 22 16 4 42 12 -31 10 38 34 14 -29 -20 17 8 -4 6 10 9 8 7 10 8 8 12 7 2 6 7 -1 -2 13 21 14 8 14 21 18 12 6 5
17 16 12 10 10 13 14 8 6 6 12 24 23 17 14 1 3 18 -0 -4 27 26 7 14 20 17 12 4 9 14 2 11 34 22 12 29 30 24 25 19 11 0 2 15 17 24 18 4 19 5 -18 27 34 -19 -22 6 26 32 -6 -37 -12 12 4 2 10 9 7 8 6 5 4 7 11 9 7 9 8 7 10 14 16 13 10 15 23 23 12 3
19 15 10 9 9 15 14 9 6 1 16 31 10 2 11 -1 4 20 -1 -8 16 17 10 19 18 7 3 8 10 10 8 11 20 12 -2 12 25 18 19 29 31 9 -6 7 10 8 15 10 16 21 5 10 24 10 -4 -7 -2 26 32 -5 -25 -13 -3 4 13 10 7 8 1 0 6 5 4 6 6 9 8 7 11 12 11 11 8 6 10 19 17 -1
20 12 7 9 11 14 15 12 7 5 20 27 8 1 11 10 11 14 7 7 12 16 21 17 9 5 4 8 8 12 13 -1 4 16 6 11 19 -3 -6 20 31 16 4 6 0 -6 5 5 -1 13 22 17 9 6 10 2 -11 4 34 35 1 -26 -14 7 13 12 12 8 1 -2 4 6 4 3 1 5 12 9 8 12 13 10 8 8 6 11 15 -1
20 12 6 11 11 11 19 13 6 14 18 10 9 9 9 17 21 15 11 7 6 17 22 16 14 11 7 9 7 7 13 9 11 12 7 21 22 -10 -15 10 18 16 21 19 -1 -14 1 18 17 9 12 23 17 5 11 11 -4 -14 -4 22 18 -12 -2 18 6 4 12 8 7 7 5 6 5 5 -2 -6 6 10 3 3 6 6 5 6 6 3 5 2
20 14 6 9 9 11 20 15 8 16 14 7 12 11 12 20 22 20 14 1 6 15 9 10 17 10 7 13 11 3 11 27 21 0 2 19 21 13 7 8 17 16 14 20 4 -23 -14 15 34 38 31 29 20 5 11 16 9 4 2 18 24 -3 8 36 13 -2 12 10 7 6 7 15 13 7 4 -3 1 11 13 6 -0 3 8 8 10 7 0 1
17 12 6 5 7 10 15 15 11 9 11 16 11 3 14 24 19 19 13 4 11 10 7 17 15 9 13 15 14 6 3 13 6 1 14 8 9 34 21 1 26 26 5 24 18 -23 -19 6 16 36 40 28 21 13 16 20 17 25 22 14 7 -18 -3 41 27 -1 3 4 9 12 1 4 10 10 13 8 0 4 14 17 8 4 6 5 8 10 4 2
16 12 9 5 4 8 13 17 11 2 9 18 10 5 14 20 21 17 6 6 4 -6 12 26 8 4 15 16 20 13 1 4 2 8 17 3 13 37 18 2 24 24 6 14 8 -19 -11 1 -2 23 46 40 35 26 14 10 4 10 15 16 10 -20 -23 25 35 5 -14 -18 9 32 16 6 13 15 17 15 10 7 10 15 11 5 5 5 5 5 5 4
16 12 10 7 3 2 7 15 12 3 4 6 7 11 12 15 23 15 4 9 1 -9 10 19 6 9 13 15 22 12 4 10 9 13 9 4 27 35 23 25 26 19 8 -13 -14 -3 -5 -14 -15 5 33 39 35 24 10 7 4 -6 -9 4 21 4 -15 7 23 4 -16 -15 6 17 12 16 20 11 5 0 1 9 15 18 13 7 6 5 5 4 4 7
15 11 11 8 3 4 10 15 14 10 9 8 9 10 10 18 23 12 3 6 8 10 14 11 6 2 4 16 13 -1 11 15 2 13 14 5 23 25 19 30 22 17 10 -25 -21 4 -11 -17 -8 -12 -7 6 16 21 16 10 14 13 2 -4 4 11 3 1 11 11 -6 -7 10 10 3 8 9 10 13 7 3 9 17 20 12 8 9 7 6 6 3 6
14 11 14 12 3 6 15 13 6 9 14 17 16 9 9 17 18 16 7 -7 2 16 14 16 14 -3 3 21 5 -6 21 18 -11 3 24 16 16 16 11 18 19 18 15 -7 -7 1 -15 -14 -1 -7 -2 12 15 24 28 16 14 22 23 10 -4 0 6 -0 11 29 6 -18 0 18 13 6 1 3 10 10 9 8 10 16 13 10 10 8 8 7 6 8
14 10 10 12 8 6 9 7 4 9 12 16 19 12 9 11 10 22 21 -1 -2 2 -2 14 21 7 13 17 4 6 17 12 -1 4 21 18 9 11 12 13 17 17 18 17 11 9 4 -1 -4 -8 1 18 22 26 34 26 12 6 4 7 1 -5 2 0 -1 16 10 -12 -8 4 7 13 16 12 8 5 3 2 7 13 12 13 12 8 9 9 8 10
15 12 8 9 12 10 8 6 6 8 7 11 19 16 13 12 6 14 21 10 5 -0 -4 11 11 6 15 8 5 16 6 4 18 14 15 18 8 10 13 9 14 14 13 16 10 9 17 17 12 -5 -15 -2 6 11 24 23 17 14 2 4 11 -2 -4 5 1 3 7 -1 -2 -3 -8 -2 6 10 16 17 8 6 17 19 11 10 11 7 7 9 8 9
11 10 11 10 11 12 11 7 5 7 8 7 14 19 20 19 10 7 14 14 12 5 1 6 1 -0 13 9 6 14 3 2 16 14 18 23 11 10 14 9 13 14 10 12 8 7 12 19 24 10 -6 5 5 1 17 18 16 31 24 11 14 6 -4 2 5 9 9 1 2 5 -2 -8 -8 -5 6 19 20 10 10 19 19 13 12 9 4 5 7 7
10 5 9 11 11 13 14 13 9 8 10 5 6 14 18 23 20 13 14 13 11 12 9 6 3 -3 -0 3 5 10 5 0 3 7 16 20 11 9 12 10 12 13 13 13 9 7 6 11 24 16 -2 2 4 5 22 16 -2 10 25 15 6 5 5 3 1 5 8 5 6 6 2 1 0 -3 -4 6 20 16 4 10 18 16 15 14 7 3 3 3
10 5 8 9 10 13 14 16 12 7 6 4 3 6 6 13 21 22 23 18 10 11 11 8 10 8 1 -1 -1 3 4 1 -1 1 5 11 13 8 8 11 11 11 13 14 15 13 4 -0 12 17 3 -4 -5 1 18 19 -6 -11 13 23 12 8 10 3 -8 -11 -8 1 8 4 -0 1 3 4 -2 -8 -1 9 5 1 7 12 14 16 13 8 4 1
10 9 10 9 11 13 12 14 15 10 5 2 2 3 1 2 8 12 18 25 22 18 15 11 12 14 13 9 6 8 9 4 1 2 1 6 10 9 9 12 12 10 11 13 14 14 9 1 2 10 11 6 3 -1 2 9 4 -1 12 22 19 17 17 12 8 5 4 8 13 10 1 -2 -1 -1 -1 -2 -2 2 -0 -6 -4 1 5 11 14 13 9 6
11 11 9 10 13 13 11 12 13 12 11 9 4 2 2 2 3 3 4 10 18 20 21 23 20 15 14 13 12 15 16 10 8 10 8 6 8 10 12 12 13 14 12 10 10 12 17 17 11 8 9 11 14 9 3 5 7 6 9 9 8 11 15 18 18 15 13 10 12 15 9 5 7 -0 -5 3 10 10 6 3 3 4 1 5 11 13 12 9
12 11 6 9 12 10 11 11 10 12 15 16 11 4 3 3 2 3 3 2 6 8 11 18 22 21 20 18 15 15 14 12 13 12 9 9 10 13 14 14 15 15 15 13 11 13 16 16 13 10 8 16 23 14 6 8 7 5 10 12 8 5 9 17 15 10 10 6 6 14 12 11 15 10 4 5 6 7 8 6 9 13 8 2 4 9 12 10
Height
5843 5843 5842 5842 5842 5842 5842 5842 5842 5842 5843 5843 5844 5844 5845 5845 5846 5846 5847 5848 5848 5849 5850 5851 5852 5853 5854 5855 5856 5858 5859 5860 5862 5863 5864 5865 5866 5867 5868 5869 5870 5871 5872 5873 5874 5875 5877 5879 5880 5881 5883 5884 5885 5886 5887 5889 5890 5890 5891 5890 5889 5890 5889 5888 5888 5889 5889 5889 5889 5890 5892 5893 5893 5895 5896 5896 5898 5899 5899 5899 5900 5900 5900 5900 5901 5901 5902 5902
5841 5840 5840 5840 5840 5839 5839 5839 5839 5839 5840 5840 5841 5841 5842 5843 5843 5844 5845 5845 5846 5847 5848 5849 5850 5851 5852 5853 5854 5855 5857 5858 5859 5861 5862 5863 5864 5865 5867 5868 5869 5870 5870 5871 5873 5874 5875 5877 5878 5880 5881 5883 5885 5886 5887 5888 5890 5890 5890 5890 5889 5889 5890 5889 5889 5890 5890 5891 5891 5891 5893 5893 5894 5896 5897 5897 5898 5899 5899 5900 5900 5901 5901 5901 5901 5901 5902 5903
5838 5838 5837 5837 5837 5837 5837 5837 5837 5837 5837 5837 5838 5838 5839 5840 5841 5841 5842 5843 5844 5845 5845 5846 5847 5849 5850 5851 5852 5853 5855 5856 5857 5859 5860 5861 5862 5864 5865 5866 5867 5869 5869 5871 5872 5873 5874 5876 5877 5878 5880 5882 5884 5885 5886 5888 5890 5889 5890 5890 5889 5889 5890 5890 5890 5891 5891 5892 5893 5893 5894 5895 5895 5896 5897 5898 5899 5899 5900 5900 5901 5902 5902 5902 5902 5902 5903 5904
5836 5835 5835 5835 5834 5834 5834 5834 5834 5834 5834 5834 5835 5835 5836 5837 5838 5838 5839 5840 5841 5842 5843 5844 5845 5846 5847 5849 5850 5851 5852 5853 5856 5857 5858 5859 5861 5862 5864 5865 5866 5867 5868 5869 5871 5872 5874 5874 5876 5877 5879 5881 5883 5884 5885 5887 5889 5889 5889 5890 5889 5889 5890 5891 5891 5891 5892 5893 5893 5893 5895 5897 5897 5897 5897 5899 5900 5900 5901 5901 5902 5902 5902 5902 5903 5903 5904 5904
5833 5832 5832 5832 5831 5831 5831 5831 5831 5832 5832 5832 5832 5832 5833 5834 5835 5835 5836 5837 5838 5839 5840 5841 5843 5844 5845 5846 5847 5849 5850 5852 5855 5855 5855 5857 5859 5861 5862 5863 5865 5866 5867 5868 5869 5871 5872 5873 5874 5876 5877 5879 5881 5883 5884 5886 5888 5889 5889 5889 5889 5889 5890 5891 5891 5892 5892 5893 5893 5893 5897 5898 5897 5897 5899 5900 5901 5901 5901 5902 5902 5903 5903 5903 5903 5904 5905 5905
5830 5829 5829 5829 5828 5828 5828 5828 5828 5828 5829 5829 5829 5830 5830 5831 5832 5832 5833 5834 5835 5836 5837 5839 5840 5841 5842 5844 5845 5846 5847 5851 5853 5853 5854 5856 5857 5859 5861 5862 5863 5864 5866 5867 5868 5870 5871 5872 5873 5875 5876 5878 5880 5882 5883 5885 5887 5888 5889 5889 5889 5890 5891 5892 5892 5892 5892 5893 5893 5895 5898 5898 5897 5898 5899 5900 5902 5902 5901 5902 5903 5903 5904 5904 5904 5905 5906 5907
5827 5826 5826 5825 5825 5825 5825 5825 5824 5825 5825 5826 5826 5827 5827 5828 5829 5829 5830 5831 5832 5833 5834 5836 5837 5838 5840 5841 5842 5844 5845 5849 5850 5849 5852 5854 5855 5857 5859 5860 5861 5863 5864 5866 5867 5868 5870 5871 5872 5874 5875 5877 5879 5881 5882 5884 5886 5888 5888 5888 5888 5890 5891 5892 5892 5892 5892 5892 5894 5896 5898 5897 5897 5899 5900 5901 5902 5902 5901 5902 5903 5904 5904 5905 5905 5905 5906 5907
5824 5823 5823 5822 5822 5821 5821 5821 5821 5821 5821 5822 5823 5823 5824 5824 5825 5826 5827 5827 5828 5830 5831 5833 5834 5836 5837 5838 5840 5841 5842 5847 5847 5847 5850 5851 5852 5855 5857 5858 5859 5861 5862 5864 5866 5867 5868 5870 5871 5873 5875 5877 5878 5880 5882 5884 5886 5887 5888 5889 5888 5889 5891 5892 5892 5893 5892 5893 5894 5896 5898 5897 5898 5899 5900 5901 5902 5902 5902 5903 5903 5904 5905 5905 5906 5906 5907 5908
5821 5820 5819 5819 5818 5818 5818 5818 5818 5818 5818 5819 5819 5820 5820 5821 5822 5823 5823 5824 5825 5826 5828 5829 5831 5833 5834 5835 5837 5837 5841 5845 5845 5845 5848 5849 5851 5853 5854 5856 5857 5859 5861 5862 5864 5866 5867 5869 5871 5872 5873 5874 5876 5878 5881 5883 5884 5886 5887 5888 5888 5889 5892 5892 5892 5893 5893 5893 5895 5897 5897 5897 5898 5899 5900 5901 5901 5902 5903 5903 5904 5905 5905 5906 5907 5907 5908 5909
5818 5817 5816 5816 5815 5815 5814 5814 5814 5814 5815 5815 5815 5816 5816 5817 5818 5819 5820 5821 5822 5823 5824 5826 5827 5829 5831 5832 5833 5835 5839 5842 5841 5844 5846 5847 5849 5850 5852 5854 5855 5857 5859 5861 5863 5864 5866 5868 5869 5870 5872 5873 5875 5877 5879 5881 5883 5884 5886 5888 5887 5888 5891 5892 5891 5893 5893 5894 5895 5896 5897 5897 5899 5900 5901 5901 5902 5903 5903 5903 5904 5905 5906 5907 5907 5908 5909 5909
5816 5815 5814 5813 5812 5812 5811 5811 5811 5810 5811 5811 5811 5812 5812 5813 5814 5815 5816 5817 5818 5820 5821 5822 5824 5826 5827 5829 5830 5833 5838 5839 5840 5842 5844 5845 5847 5848 5850 5852 5853 5856 5858 5859 5861 5862 5864 5866 5867 5869 5871 5873 5875 5877 5879 5880 5881 5883 5885 5886 5887 5888 5891 5892 5890 5892 5893 5894 5895 5896 5896 5897 5899 5900 5901 5902 5902 5903 5903 5903 5904 5905 5907 5907 5908 5909 5909 5910
5814 5812 5811 5810 5809 5809 5808 5808 5807 5807 5807 5807 5808 5808 5808 5809 5810 5811 5812 5813 5815 5816 5817 5819 5820 5822 5824 5826 5827 5831 5835 5836 5838 5840 5841 5843 5845 5846 5848 5849 5851 5853 5856 5858 5859 5861 5863 5864 5866 5868 5870 5871 5874 5876 5878 5879 5880 5882 5884 5886 5887 5888 5889 5891 5891 5892 5893 5893 5894 5895 5895 5896 5898 5900 5901 5902 5901 5903 5903 5904 5905 5905 5907 5908 5908 5909 5910 5910
5812 5810 5809 5808 5807 5806 5806 5805 5804 5804 5804 5804 5804 5804 5805 5805 5806 5807 5808 5809 5810 5812 5814 5815 5817 5818 5820 5822 5823 5828 5832 5833 5834 5836 5838 5840 5842 5844 5846 5847 5849 5851 5854 5856 5857 5859 5861 5863 5865 5867 5869 5871 5873 5874 5876 5878 5879 5881 5883 5884 5887 5887 5887 5891 5893 5892 5892 5892 5893 5894 5895 5896 5898 5899 5900 5901 5901 5902 5904 5904 5905 5905 5907 5908 5909 5910 5910 5911
5810 5808 5807 5806 5805 5804 5803 5802 5802 5801 5801 5801 5800 5800 5801 5801 5802 5803 5804 5805 5806 5808 5810 5811 5813 5815 5817 5818 5822 5826 5829 5830 5831 5833 5836 5837 5839 5842 5844 5846 5847 5849 5852 5854 5856 5858 5860 5863 5864 5866 5869 5871 5872 5874 5876 5877 5878 5880 5882 5884 5886 5886 5886 5889 5892 5892 5892 5892 5893 5894 5894 5896 5897 5898 5899 5900 5901 5902 5904 5904 5905 5906 5907 5908 5909 5910 5911 5911
5808 5806 5805 5803 5802 5801 5800 5800 5799 5798 5797 5797 5797 5797 5797 5798 5798 5799 5800 5801 5802 5804 5805 5808 5809 5812 5814 5815 5818 5822 5824 5826 5828 5830 5833 5835 5837 5839 5841 5843 5845 5847 5850 5852 5855 5857 5860 5862 5863 5865 5869 5870 5872 5874 5875 5876 5877 5879 5881 5883 5885 5886 5886 5887 5889 5891 5892 5892 5893 5894 5894 5895 5896 5897 5898 5899 5901 5902 5904 5905 5905 5906 5907 5908 5909 5910 5911 5912
5805 5804 5802 5801 5800 5798 5797 5796 5796 5795 5794 5794 5794 5793 5793 5794 5794 5795 5796 5797 5798 5800 5802 5803 5805 5808 5810 5811 5816 5819 5820 5823 5825 5827 5830 5832 5834 5836 5839 5841 5843 5846 5848 5851 5853 5855 5857 5859 5861 5864 5867 5869 5871 5872 5873 5875 5876 5878 5880 5882 5884 5885 5885 5885 5887 5890 5891 5892 5894 5895 5894 5894 5895 5896 5897 5899 5900 5901 5903 5904 5905 5906 5907 5908 5909 5910 5911 5912
5803 5801 5800 5798 5797 5796 5794 5793 5792 5792 5791 5790 5790 5790 5790 5790 5790 5791 5792 5793 5794 5796 5798 5799 5802 5804 5806 5809 5814 5816 5816 5820 5823 5825 5827 5829 5832 5834 5836 5839 5841 5844 5846 5849 5851 5852 5854 5856 5859 5862 5865 5867 5869 5870 5872 5874 5875 5877 5880 5881 5883 5884 5884 5883 5885 5888 5890 5890 5892 5895 5894 5894 5894 5894 5896 5898 5899 5900 5902 5904 5905 5906 5907 5908 5909 5910 5911 5912
5800 5798 5797 5795 5794 5792 5791 5790 5789 5788 5788 5787 5786 5786 5786 5786 5786 5787 5788 5789 5790 5792 5794 5795 5798 5800 5802 5806 5809 5810 5812 5815 5819 5822 5824 5827 5829 5832 5834 5836 5839 5841 5844 5846 5849 5850 5852 5854 5856 5859 5862 5865 5867 5870 5871 5873 5876 5878 5879 5881 5882 5883 5882 5882 5884 5888 5890 5890 5891 5893 5893 5893 5893 5893 5895 5896 5897 5899 5901 5902 5904 5905 5906 5907 5909 5910 5912 5912
5797 5795 5794 5792 5790 5789 5788 5787 5785 5785 5784 5783 5783 5782 5782 5782 5782 5782 5783 5785 5786 5787 5789 5792 5794 5796 5798 5801 5804 5805 5807 5810 5815 5818 5821 5823 5826 5829 5832 5834 5836 5839 5841 5844 5847 5848 5851 5852 5854 5856 5859 5862 5866 5870 5872 5873 5876 5879 5879 5880 5882 5882 5881 5883 5885 5887 5888 5889 5890 5891 5891 5892 5892 5893 5894 5894 5896 5898 5899 5901 5903 5905 5906 5907 5909 5910 5911 5912
5794 5793 5791 5789 5787 5785 5784 5783 5782 5781 5780 5779 5778 5778 5777 5777 5777 5778 5779 5780 5781 5783 5786 5788 5791 5792 5794 5798 5801 5801 5804 5808 5812 5814 5817 5821 5824 5827 5829 5831 5834 5836 5838 5842 5844 5846 5849 5851 5852 5855 5858 5862 5866 5869 5871 5871 5873 5877 5879 5879 5880 5881 5880 5882 5885 5886 5887 5889 5890 5891 5891 5891 5891 5892 5892 5893 5896 5898 5899 5902 5903 5904 5905 5906 5908 5910 5911 5912
5791 5790 5788 5786 5784 5782 5780 5779 5777 5776 5775 5774 5773 5773 5773 5772 5772 5773 5774 5775 5777 5779 5781 5784 5786 5787 5789 5792 5793 5795 5801 5806 5809 5810 5814 5818 5821 5824 5826 5829 5831 5833 5836 5839 5841 5844 5846 5848 5851 5855 5858 5861 5864 5867 5868 5869 5870 5873 5876 5877 5878 5880 5880 5880 5883 5885 5886 5887 5889 5890 5889 5890 5891 5891 5891 5893 5897 5898 5899 5902 5903 5904 5905 5906 5907 5909 5910 5912
5788 5787 5785 5783 5781 5779 5777 5775 5773 5772 5771 5770 5769 5768 5768 5768 5768 5768 5770 5771 5772 5774 5777 5779 5781 5783 5784 5786 5788 5794 5800 5802 5804 5807 5811 5815 5818 5821 5824 5827 5829 5831 5834 5836 5839 5841 5844 5847 5850 5853 5856 5859 5862 5863 5865 5867 5870 5873 5875 5876 5877 5879 5879 5879 5882 5884 5885 5886 5887 5888 5888 5889 5892 5891 5890 5893 5895 5897 5899 5901 5901 5902 5904 5905 5907 5909 5910 5912
5785 5783 5781 5779 5777 5775 5773 5771 5769 5767 5766 5765 5765 5764 5764 5764 5764 5764 5765 5766 5768 5770 5772 5775 5777 5779 5780 5782 5787 5794 5798 5798 5801 5805 5808 5812 5815 5818 5821 5824 5826 5829 5831 5833 5836 5839 5842 5846 5849 5852 5854 5856 5858 5860 5863 5865 5868 5871 5873 5874 5876 5878 5879 5879 5881 5883 5884 5886 5886 5886 5887 5888 5891 5891 5890 5892 5894 5895 5897 5899 5900 5901 5902 5904 5906 5908 5910 5912
5782 5780 5778 5776 5773 5771 5768 5767 5765 5763 5762 5761 5761 5760 5760 5760 5760 5761 5761 5763 5764 5766 5769 5771 5773 5775 5777 5780 5785 5790 5791 5794 5798 5801 5805 5809 5811 5814 5818 5821 5824 5827 5828 5830 5834 5837 5841 5845 5848 5850 5852 5854 5856 5858 5861 5863 5866 5868 5871 5873 5875 5877 5879 5879 5880 5881 5883 5884 5885 5886 5886 5887 5890 5890 5891 5892 5893 5894 5896 5898 5900 5901 5903 5904 5906 5907 5909 5911
5779 5777 5775 5773 5770 5767 5765 5763 5761 5760 5758 5758 5757 5757 5757 5757 5757 5758 5758 5760 5760 5762 5765 5767 5770 5773 5773 5776 5781 5785 5787 5789 5792 5797 5802 5805 5808 5812 5815 5819 5822 5824 5826 5829 5832 5835 5839 5842 5844 5847 5850 5853 5855 5856 5858 5861 5865 5868 5870 5872 5874 5876 5879 5878 5878 5881 5882 5884 5885 5886 5886 5887 5888 5889 5891 5892 5893 5894 5896 5897 5898 5900 5902 5904 5905 5906 5908 5910
5777 5775 5772 5770 5767 5764 5762 5760 5758 5757 5756 5755 5755 5755 5755 5755 5755 5755 5756 5758 5758 5758 5761 5765 5768 5769 5769 5774 5779 5782 5785 5787 5788 5794 5798 5801 5804 5808 5812 5816 5819 5822 5824 5827 5830 5833 5837 5839 5841 5844 5847 5849 5851 5853 5856 5860 5864 5867 5869 5871 5872 5874 5877 5877 5878 5880 5882 5882 5884 5886 5886 5885 5886 5888 5889 5891 5892 5893 5894 5896 5897 5899 5901 5903 5904 5905 5908 5910
5774 5772 5770 5767 5764 5762 5760 5758 5756 5755 5754 5753 5753 5753 5753 5753 5754 5754 5755 5758 5757 5756 5758 5763 5765 5764 5767 5773 5776 5780 5784 5784 5786 5791 5795 5798 5801 5805 5809 5812 5816 5820 5823 5825 5827 5831 5834 5837 5839 5841 5843 5846 5849 5852 5855 5858 5861 5865 5870 5871 5871 5872 5874 5875 5878 5881 5882 5882 5883 5885 5885 5883 5885 5887 5888 5889 5890 5892 5893 5894 5896 5899 5900 5901 5904 5906 5907 5909
5772 5770 5768 5765 5762 5760 5758 5756 5755 5753 5752 5751 5751 5751 5751 5751 5753 5753 5755 5756 5756 5754 5755 5759 5762 5762 5766 5769 5771 5777 5779 5779 5783 5789 5794 5796 5799 5804 5808 5810 5813 5816 5819 5821 5824 5829 5833 5835 5836 5838 5840 5843 5847 5850 5854 5856 5859 5865 5869 5869 5870 5871 5873 5875 5878 5881 5882 5881 5881 5883 5883 5883 5885 5886 5887 5888 5888 5890 5892 5894 5896 5898 5898 5899 5902 5905 5907 5908
5770 5768 5766 5763 5761 5758 5756 5755 5753 5752 5751 5749 5749 5749 5750 5750 5751 5753 5754 5754 5755 5754 5754 5758 5761 5762 5764 5767 5771 5774 5775 5776 5780 5784 5790 5793 5797 5802 5804 5806 5810 5814 5816 5818 5822 5828 5832 5832 5832 5835 5838 5841 5844 5848 5852 5854 5858 5862 5864 5866 5869 5870 5871 5873 5876 5878 5879 5879 5881 5883 5883 5883 5885 5885 5886 5887 5888 5889 5889 5891 5894 5896 5898 5898 5900 5903 5906 5907
5769 5766 5764 5762 5759 5757 5756 5754 5753 5751 5750 5748 5748 5748 5748 5750 5750 5752 5753 5754 5755 5755 5755 5758 5760 5760 5763 5768 5771 5772 5774 5777 5778 5781 5785 5789 5793 5797 5800 5802 5807 5811 5815 5818 5821 5826 5830 5829 5829 5832 5837 5840 5843 5847 5849 5851 5855 5858 5861 5865 5868 5868 5869 5871 5872 5874 5876 5877 5880 5883 5882 5882 5884 5885 5885 5886 5887 5888 5888 5889 5892 5895 5897 5898 5899 5903 5905 5905
5767 5765 5763 5760 5758 5757 5755 5754 5752 5750 5749 5748 5748 5748 5748 5749 5750 5751 5753 5754 5755 5755 5755 5757 5758 5759 5762 5767 5769 5771 5774 5776 5775 5778 5782 5785 5789 5794 5798 5802 5807 5811 5813 5817 5820 5822 5825 5826 5826 5829 5833 5836 5840 5845 5848 5849 5852 5855 5859 5864 5865 5866 5868 5869 5871 5873 5874 5875 5880 5883 5881 5880 5882 5882 5884 5885 5886 5887 5887 5888 5890 5893 5896 5898 5899 5902 5903 5905
5766 5763 5761 5759 5758 5756 5755 5753 5752 5750 5749 5748 5748 5748 5748 5748 5749 5751 5752 5753 5755 5755 5755 5756 5757 5759 5762 5765 5768 5772 5775 5774 5774 5779 5783 5785 5790 5793 5797 5801 5805 5809 5812 5816 5819 5818 5820 5822 5822 5826 5830 5833 5837 5842 5843 5845 5849 5853 5857 5860 5862 5864 5867 5868 5870 5872 5873 5875 5880 5882 5879 5877 5879 5880 5882 5884 5885 5885 5885 5886 5889 5891 5894 5896 5898 5900 5902 5903
5764 5762 5760 5758 5757 5756 5754 5753 5751 5750 5749 5749 5749 5748 5748 5749 5749 5751 5753 5754 5755 5755 5755 5757 5757 5759 5762 5766 5769 5772 5775 5774 5775 5780 5784 5786 5790 5793 5797 5800 5803 5807 5812 5816 5818 5817 5819 5820 5820 5823 5828 5829 5832 5838 5841 5843 5847 5850 5853 5857 5859 5862 5865 5866 5869 5871 5873 5877 5878 5878 5876 5875 5877 5879 5881 5883 5884 5884 5885 5886 5888 5889 5892 5894 5897 5899 5900 5901
5763 5761 5759 5758 5756 5755 5754 5752 5751 5750 5749 5749 5749 5749 5749 5749 5750 5752 5753 5754 5755 5755 5756 5758 5759 5760 5763 5768 5771 5772 5776 5776 5776 5780 5784 5786 5789 5792 5795 5798 5801 5807 5811 5814 5815 5816 5818 5819 5820 5823 5826 5826 5829 5835 5839 5841 5845 5848 5851 5855 5857 5861 5866 5868 5870 5872 5875 5878 5877 5875 5874 5874 5876 5878 5879 5880 5882 5883 5884 5885 5887 5889 5891 5893 5895 5897 5899 5901
5762 5760 5758 5757 5755 5754 5753 5752 5751 5750 5750 5749 5750 5750 5750 5750 5751 5754 5754 5754 5755 5755 5756 5759 5760 5762 5766 5769 5772 5773 5776 5777 5777 5780 5784 5787 5789 5792 5795 5797 5799 5804 5807 5809 5812 5815 5819 5822 5821 5821 5823 5824 5828 5833 5834 5837 5843 5846 5848 5851 5855 5860 5866 5870 5872 5873 5876 5878 5876 5873 5871 5871 5874 5876 5877 5878 5879 5881 5882 5884 5886 5888 5890 5892 5893 5895 5898 5901
5761 5759 5757 5756 5755 5753 5752 5752 5751 5750 5750 5750 5750 5750 5750 5751 5752 5753 5754 5754 5755 5755 5757 5760 5762 5764 5767 5768 5770 5772 5774 5776 5778 5782 5785 5787 5788 5792 5796 5798 5798 5800 5802 5804 5807 5812 5820 5822 5817 5816 5820 5824 5829 5831 5831 5836 5842 5844 5846 5850 5854 5858 5863 5869 5871 5872 5876 5878 5873 5871 5870 5870 5872 5874 5875 5876 5876 5878 5879 5882 5886 5888 5889 5890 5892 5894 5896 5899
5760 5758 5757 5756 5754 5753 5752 5751 5751 5750 5750 5750 5751 5750 5750 5751 5751 5752 5753 5754 5754 5754 5757 5761 5763 5765 5766 5765 5768 5771 5772 5773 5777 5781 5784 5784 5785 5788 5790 5791 5793 5796 5799 5802 5805 5810 5818 5818 5813 5814 5819 5821 5825 5827 5828 5834 5839 5842 5845 5848 5852 5857 5859 5863 5866 5867 5873 5875 5870 5868 5869 5869 5871 5872 5874 5874 5874 5876 5878 5880 5885 5887 5888 5889 5890 5892 5894 5897
5759 5758 5757 5756 5754 5753 5752 5751 5751 5751 5751 5751 5751 5750 5750 5750 5751 5751 5752 5753 5755 5755 5757 5759 5762 5764 5764 5764 5766 5769 5770 5772 5774 5778 5780 5782 5784 5784 5784 5785 5789 5794 5798 5801 5805 5809 5813 5814 5811 5813 5817 5818 5822 5825 5828 5833 5836 5837 5841 5844 5850 5856 5857 5858 5861 5864 5870 5872 5868 5865 5866 5868 5869 5870 5871 5872 5873 5874 5875 5879 5883 5885 5886 5887 5889 5891 5893 5894
5758 5757 5756 5755 5754 5752 5752 5751 5751 5751 5751 5751 5751 5750 5750 5750 5750 5751 5752 5753 5754 5755 5756 5757 5759 5761 5762 5762 5764 5767 5770 5772 5774 5777 5779 5780 5781 5781 5782 5786 5789 5792 5796 5800 5804 5806 5810 5811 5809 5811 5814 5815 5819 5823 5827 5832 5835 5836 5841 5846 5850 5854 5854 5857 5860 5863 5867 5870 5866 5862 5863 5864 5866 5868 5868 5869 5870 5870 5873 5878 5881 5884 5885 5886 5888 5890 5891 5893
5758 5757 5756 5755 5754 5753 5752 5751 5751 5751 5750 5750 5751 5750 5750 5750 5750 5751 5752 5752 5753 5754 5754 5756 5758 5760 5760 5761 5763 5767 5770 5772 5774 5776 5776 5775 5777 5778 5781 5785 5788 5792 5796 5800 5804 5805 5807 5810 5809 5808 5810 5812 5816 5822 5825 5829 5833 5837 5841 5845 5847 5849 5851 5855 5859 5861 5864 5868 5865 5860 5861 5863 5865 5866 5865 5865 5867 5869 5873 5877 5879 5882 5884 5885 5887 5889 5891 5892
5757 5756 5755 5754 5754 5753 5752 5751 5751 5750 5750 5750 5750 5750 5750 5750 5751 5751 5752 5753 5754 5755 5754 5756 5758 5758 5759 5761 5763 5766 5770 5771 5772 5772 5772 5772 5774 5776 5779 5783 5788 5792 5796 5800 5803 5802 5803 5807 5808 5807 5808 5812 5815 5818 5820 5824 5828 5832 5838 5842 5845 5848 5850 5853 5858 5861 5863 5864 5861 5858 5860 5862 5863 5864 5864 5865 5866 5868 5872 5875 5876 5880 5882 5884 5886 5888 5890 5891
5757 5756 5755 5754 5754 5753 5752 5752 5750 5750 5750 5750 5750 5751 5751 5751 5751 5751 5752 5753 5754 5755 5755 5756 5758 5758 5759 5761 5762 5765 5768 5769 5769 5769 5770 5770 5772 5774 5778 5782 5786 5790 5793 5796 5797 5797 5799 5803 5805 5806 5809 5812 5813 5814 5817 5822 5824 5827 5832 5838 5843 5847 5851 5855 5858 5860 5861 5859 5855 5856 5858 5857 5859 5861 5863 5865 5866 5866 5869 5872 5874 5877 5880 5882 5884 5886 5888 5890
5756 5755 5755 5754 5754 5753 5753 5752 5750 5750 5751 5752 5751 5751 5751 5751 5751 5751 5752 5754 5755 5756 5756 5756 5757 5759 5759 5759 5761 5764 5766 5765 5766 5767 5768 5769 5771 5773 5777 5780 5783 5786 5788 5790 5790 5794 5800 5802 5802 5804 5807 5810 5811 5813 5817 5822 5825 5828 5831 5835 5839 5842 5845 5848 5849 5851 5855 5853 5850 5853 5853 5852 5855 5857 5859 5863 5864 5864 5866 5869 5872 5875 5878 5879 5881 5883 5885 5887
5756 5755 5755 5755 5754 5753 5753 5752 5751 5751 5752 5752 5752 5752 5751 5751 5751 5751 5752 5753 5754 5755 5756 5756 5757 5758 5758 5759 5761 5763 5763 5764 5765 5766 5766 5768 5770 5773 5776 5779 5782 5785 5787 5789 5791 5796 5800 5799 5800 5803 5806 5809 5810 5812 5815 5819 5822 5827 5831 5833 5834 5835 5837 5838 5839 5845 5852 5851 5847 5847 5848 5849 5851 5853 5856 5859 5860 5862 5864 5867 5870 5873 5875 5877 5878 5881 5883 5885
5756 5755 5754 5754 5754 5753 5753 5753 5752 5752 5753 5752 5752 5752 5751 5751 5751 5751 5751 5752 5753 5754 5756 5756 5757 5758 5758 5760 5761 5761 5762 5763 5764 5764 5766 5768 5770 5772 5775 5778 5781 5784 5787 5790 5793 5796 5796 5795 5798 5802 5805 5808 5809 5810 5812 5816 5818 5821 5824 5827 5829 5832 5835 5836 5838 5843 5847 5845 5841 5841 5843 5846 5848 5850 5852 5855 5857 5860 5863 5865 5868 5871 5872 5874 5876 5878 5880 5882
5755 5754 5754 5754 5754 5753 5753 5753 5753 5753 5753 5752 5752 5752 5751 5751 5751 5751 5751 5752 5753 5754 5755 5756 5757 5758 5759 5759 5760 5761 5762 5763 5764 5765 5766 5767 5769 5772 5775 5777 5780 5783 5785 5788 5791 5792 5793 5795 5798 5800 5802 5803 5804 5806 5810 5813 5816 5819 5821 5823 5827 5830 5832 5834 5837 5841 5841 5840 5838 5839 5841 5843 5845 5847 5849 5851 5854 5858 5860 5862 5866 5868 5869 5871 5873 5875 5877 5879
5754 5753 5753 5754 5753 5752 5752 5752 5752 5753 5753 5752 5751 5751 5751 5751 5751 5751 5751 5752 5753 5753 5754 5755 5756 5758 5759 5760 5760 5761 5762 5763 5764 5765 5766 5767 5769 5771 5773 5776 5778 5781 5783 5786 5787 5789 5792 5795 5797 5799 5800 5801 5802 5804 5807 5811 5814 5818 5820 5821 5824 5827 5828 5833 5837 5838 5837 5837 5836 5838 5840 5840 5842 5844 5846 5849 5852 5855 5857 5859 5862 5865 5866 5868 5871 5873 5874 5876
5754 5753 5753 5753 5752 5752 5752 5752 5752 5752 5752 5752 5752 5752 5751 5751 5751 5751 5751 5752 5753 5753 5754 5754 5756 5757 5758 5759 5760 5760 5761 5762 5763 5764 5766 5767 5769 5771 5773 5775 5777 5779 5781 5783 5785 5788 5792 5794 5795 5796 5798 5799 5801 5803 5806 5809 5810 5812 5814 5815 5820 5825 5828 5833 5835 5832 5832 5834 5834 5836 5838 5837 5838 5841 5844 5847 5850 5852 5854 5857 5859 5862 5863 5865 5868 5870 5872 5874
5753 5753 5752 5752 5752 5751 5751 5751 5751 5752 5752 5752 5752 5752 5752 5751 5751 5751 5751 5752 5752 5753 5754 5754 5755 5756 5757 5758 5758 5759 5760 5761 5762 5764 5765 5767 5768 5770 5771 5773 5775 5777 5779 5781 5784 5787 5789 5789 5790 5792 5794 5796 5799 5802 5804 5806 5807 5808 5810 5813 5817 5822 5825 5828 5829 5827 5828 5832 5835 5836 5836 5834 5835 5837 5841 5845 5848 5849 5851 5854 5857 5859 5860 5862 5865 5867 5869 5872
5753 5752 5752 5752 5751 5751 5751 5751 5751 5751 5751 5752 5752 5752 5752 5752 5751 5751 5751 5752 5752 5753 5754 5754 5754 5755 5756 5757 5757 5757 5759 5761 5761 5763 5765 5766 5768 5769 5770 5771 5774 5776 5778 5780 5782 5784 5785 5786 5788 5791 5794 5796 5798 5799 5802 5804 5805 5806 5808 5810 5814 5818 5820 5822 5823 5824 5826 5829 5832 5833 5832 5831 5832 5835 5839 5843 5844 5846 5848 5851 5854 5856 5858 5860 5862 5864 5866 5868
5752 5751 5751 5751 5751 5750 5750 5750 5750 5750 5750 5751 5751 5752 5752 5752 5752 5752 5752 5752 5752 5753 5753 5754 5754 5755 5756 5756 5756 5757 5759 5760 5761 5763 5764 5765 5766 5767 5769 5771 5773 5774 5776 5778 5780 5782 5783 5785 5787 5791 5793 5794 5795 5798 5799 5800 5802 5805 5806 5807 5810 5814 5816 5818 5820 5821 5823 5825 5827 5828 5828 5828 5830 5834 5838 5840 5840 5843 5846 5848 5850 5853 5855 5857 5858 5860 5862 5864
5751 5751 5751 5751 5750 5750 5749 5750 5750 5749 5749 5750 5751 5751 5751 5752 5752 5751 5751 5752 5753 5753 5753 5754 5754 5755 5755 5756 5757 5758 5759 5760 5761 5763 5763 5764 5765 5766 5768 5770 5771 5772 5774 5777 5779 5780 5781 5783 5785 5788 5791 5792 5793 5794 5796 5797 5800 5803 5803 5804 5806 5810 5812 5814 5815 5816 5819 5822 5824 5823 5822 5825 5828 5831 5833 5836 5837 5840 5843 5845 5846 5849 5851 5853 5855 5857 5859 5860